Location: Unspecified
(43.4680°N, 87.1740°E)
Time: 19:52:41
(UTC+00:00)

Orbus 7S? - Pass Details

Date: 17 April 2021
Orbit: 334 x 6415 km, 56.9° (Epoch: 06 May)

Event Time Altitude Azimuth Distance (km) Brightness Sun altitude
Rises 14:56:58 0° 248° (WSW) 2,158 6.8 -20.2°
Reaches altitude 10° 14:58:36 10° 257° (WSW) 1,436 5.9 -20.4°
Maximum altitude 15:01:21 42° 331° (NNW) 760 4.4 -20.8°
Drops below altitude 10° 15:06:22 10° 43° (NE) 2,607 6.7 -21.5°
Sets 15:10:21 0° 50° (NE) 4,340 7.8 -22.1°
